SCP
0 0 0 0 0 0 0 0 0 0 0 0 0 0 0 0 0 0 0 0 0 0 0 0 -0 -0 -0 -0 -0 -0 0 0 0 0 0 0 0 0
0 0 0 0 0 0 0 0 0 0 0 0 0 0 0 0 0 0 0 0 0 0 0 -0 -0 -0 -0 -0 -0 0 0 0 0 0 0 0 0 0
0 0 0 0 0 0 0 0 0 0 0 0 0 0 0 0 0 0 0 0 0 0 0 -0 -0 -0 -0 -0 -0 0 0 0 0 0 0 0 0 0
0 0 0 0 0 0 0 0 0 0 0 0 0 0 0 0 0 0 0 -0 -0 0 -0 -0 -0 -0 -0 -0 0 0 0 0 0 0 0 0 0 0
0 0 0 0 0 0 0 0 -0 -0 -0 0 0 0 0 0 0 0 0 0 0 -0 0 -0 -0 -0 0 0 0 0 0 0 0 0 0 0 0 0
0 0 0 0 0 0 0 -0 -0 -0 -0 -0 0 0 0 0 0 0 0 0 0 0 0 0 -0 -0 0 0 0 0 0 0 0 0 0 0 0 0
0 0 0 0 -0 0 0 -0 -0 -0 -0 0 0 0 0 0 0 0 0 0 0 -0 0 0 0 0 0 0 0 0 0 0 0 0 0 0 0 0
0 0 0 0 0 0 -0 -0 -0 -0 -0 -0 0 -0 -0 0 0 0 0 -0 -0 -0 0 0 0 0 0 0 0 0 0 0 0 0 0 0 0 0
0 0 0 0 0 0 -0 -0 -0 0 -0 -0 -0 -0 0 -0 -0 -0 0 0 0 0 0 0 0 0 0 0 0 0 0 0 0 0 0 0 0 0
0 0 0 0 0 0 0 0 0 0 0 0 0 0 0 0 0 0 0 0 0 0 0 0 0 0 0 0 0 0 0 0 0 0 0 0 0 0
0 0 0 0 0 0 0 0 0 0 0 0 0 0 0 0 0 0 0 0 0 0 0 0 0 0 0 0 0 0 0 0 0 0 0 0 0 0
0 0 0 0 0 0 0 0 0 0 0 0 0 0 0 0 0 0 0 0 0 0 0 0 0 0 0 0 0 0 0 0 0 0 0 0 0 0
0 0 0 0 0 0 0 0 0 0 0 0 0 0 0 0 0 0 0 0 0 0 0 0 0 0 0 0 0 0 0 0 0 0 0 0 0 0
0 0 0 0 0 0 0 0 0 0 0 0 0 0 0 0 0 0 0 0 0 0 0 0 0 0 0 0 0 0 0 0 0 0 0 0 0 0
0 0 0 0 0 0 0 0 0 0 0 0 0 0 0 0 0 0 0 0 0 0 0 0 0 0 0 0 0 0 0 0 0 0 0 0 0 0
0 0 0 0 0 0 0 0 0 0 0 0 0 0 0 0 0 0 0 0 0 0 0 0 0 0 0 0 0 0 0 0 0 0 0 0 0 0
0 0 0 0 0 0 0 0 0 0 0 0 0 0 0 0 0 0 0 0 0 0 0 0 0 0 0 0 0 0 0 0 0 0 0 0 0 0
0 0 0 0 0 0 0 0 0 0 0 0 0 0 0 0 0 0 0 0 0 0 0 0 0 0 0 0 0 0 0 0 0 0 0 0 0 0
0 0 0 0 0 0 0 0 0 0 0 0 0 0 0 0 0 0 0 0 0 0 0 0 0 0 0 0 0 0 0 0 0 0 0 0 0 0
0 0 0 0 0 0 0 0 0 0 0 0 0 0 0 0 0 0 0 0 0 0 0 0 0 0 0 0 0 0 0 0 0 0 0 0 0 0
0 0 0 0 0 0 0 0 0 0 0 0 0 0 0 0 0 0 0 0 0 0 0 0 0 0 0 0 0 0 0 0 0 0 0 0 0 0
0 0 0 0 0 0 0 0 0 0 0 0 0 0 0 0 0 0 0 0 0 0 0 0 0 0 0 0 0 0 0 0 0 0 0 0 0 0
0 0 0 0 0 0 0 0 0 0 0 0 0 0 0 0 0 0 0 0 0 0 0 0 0 0 0 0 0 0 0 0 0 0 0 0 0 0
Wind_Speed_500mb
43 46 58 45 27 19 14 14 9 11 17 19 16 12 14 15 15 10 8 4 7 7 3 1 3 7 6 4 9 17 23 28 28 32 36 40 43 43
50 44 50 44 34 28 18 24 20 16 11 16 16 17 21 17 14 12 7 5 7 9 5 2 7 9 8 4 8 14 19 23 24 29 32 37 40 42
38 37 38 29 38 29 24 22 20 20 15 19 21 23 20 19 18 13 10 11 8 7 10 9 15 13 9 3 3 9 17 17 21 24 29 34 36 40
37 38 35 38 34 33 30 20 20 20 20 19 20 23 22 24 19 21 17 14 12 13 13 12 14 15 12 7 2 9 10 15 17 22 25 29 35 37
34 35 33 32 26 37 27 21 17 17 16 17 18 23 25 26 26 27 22 19 16 16 11 13 11 16 16 9 4 8 9 12 15 18 22 27 29 32
27 27 22 26 25 26 28 20 16 13 13 13 14 15 24 25 29 29 24 21 20 19 17 15 13 13 14 12 11 11 10 10 12 15 19 22 25 29
25 28 26 24 22 20 19 18 16 13 12 14 16 16 19 27 28 27 26 24 24 26 23 21 19 16 17 18 16 15 12 11 12 11 13 17 21 23
15 22 23 21 18 16 13 15 17 16 15 15 15 16 16 18 24 25 31 33 32 30 30 29 25 23 22 19 18 16 14 14 13 11 12 14 16 19
20 18 19 14 14 13 12 11 12 12 12 15 19 21 20 21 25 30 37 36 36 29 24 30 30 27 27 22 18 17 16 15 12 10 10 11 14 16
19 17 13 10 9 8 8 9 10 11 14 19 20 22 24 26 30 29 27 35 37 38 33 32 29 31 28 26 22 19 18 15 12 9 9 10 12 15
22 21 19 16 15 13 10 10 11 14 16 19 22 24 26 28 30 32 36 42 45 44 40 35 33 31 31 29 29 27 22 20 16 14 13 13 13 15
15 12 10 9 9 9 13 16 18 21 23 24 26 26 30 32 31 33 37 44 47 39 40 42 36 33 20 28 35 36 32 27 23 20 19 19 18 17
4 4 6 8 11 14 18 20 20 23 25 27 28 28 30 32 35 39 39 44 47 47 33 27 36 35 36 31 20 27 31 32 33 32 29 27 27 25
8 10 11 13 15 18 20 20 23 26 27 29 31 31 32 33 34 37 40 45 48 51 51 49 48 41 39 41 42 37 36 35 36 35 37 36 36 35
13 14 15 17 20 22 22 23 26 27 28 29 30 32 34 35 38 40 42 45 49 54 56 58 59 54 54 55 56 54 47 45 44 44 44 46 49 43
17 20 22 25 27 29 29 29 29 30 32 33 34 35 35 36 37 40 43 47 53 55 57 60 60 64 67 68 66 70 68 64 60 54 53 56 58 60
20 22 23 23 24 26 27 28 29 31 32 35 35 36 37 38 39 42 44 47 52 55 54 56 61 65 70 74 78 76 75 75 72 72 69 70 70 70
19 21 24 25 26 27 27 29 30 32 34 36 38 40 41 41 42 44 47 50 53 54 56 55 57 64 70 74 75 76 74 73 73 70 70 68 68 69
18 21 24 27 30 32 32 33 32 33 36 37 39 40 42 44 45 46 48 51 55 56 57 59 61 63 69 79 78 74 75 71 70 72 71 73 71 66
27 29 29 29 29 30 30 32 34 35 37 40 42 43 44 46 46 46 48 51 54 55 57 56 59 62 68 72 72 75 73 68 65 69 69 67 66 66
24 22 22 23 24 25 27 29 32 34 36 37 38 39 41 45 48 49 51 53 54 54 59 57 55 59 61 65 74 76 67 65 65 70 74 77 80 81
14 15 17 19 21 23 25 27 28 30 31 33 34 34 35 37 41 43 44 48 50 54 58 57 53 57 62 67 74 74 70 65 63 65 67 66 68 53
8 10 13 15 17 19 21 23 26 27 30 31 33 34 34 35 36 38 42 44 46 49 52 55 52 53 58 60 67 71 69 66 64 66 71 66 68 71
Wind_Direction_500mb
202 208 207 214 211 214 209 219 235 221 235 238 226 254 220 231 246 248 245 354 310 296 263 212 195 186 128 95 42 31 31 33 26 26 23 20 16 18
203 200 211 209 210 214 225 241 242 239 241 217 228 230 216 221 230 240 246 296 293 280 277 217 186 162 169 131 43 29 32 29 25 26 21 21 18 20
188 193 196 216 211 213 230 230 230 250 244 245 231 221 219 227 226 216 231 237 260 268 265 233 190 180 192 169 37 24 26 21 24 21 18 20 17 21
195 204 207 210 214 220 228 227 247 265 250 236 239 227 219 222 215 218 218 228 245 246 235 229 193 194 206 219 344 4 353 13 14 19 17 16 17 18
173 183 194 193 215 212 205 228 249 231 236 248 254 232 230 220 220 221 225 237 250 256 231 236 236 210 216 231 265 294 329 348 5 11 13 15 15 17
189 187 181 187 193 208 215 233 228 243 241 237 237 259 236 228 229 232 237 248 259 262 256 260 253 232 229 241 248 274 296 321 342 360 5 7 10 13
189 198 198 181 185 185 207 218 242 214 220 232 246 257 239 236 235 243 248 249 252 256 262 260 255 242 232 237 248 261 273 294 309 334 349 358 3 8
173 175 172 178 189 192 195 201 207 211 227 226 240 256 253 259 239 247 248 247 246 255 259 257 256 248 245 245 248 255 266 276 293 313 333 343 352 358
152 155 170 185 187 194 190 193 221 239 248 240 246 251 247 253 251 247 245 248 249 251 269 262 258 258 254 250 254 252 256 263 276 296 320 336 346 353
136 149 146 173 176 199 221 231 240 261 271 270 266 256 254 251 250 255 249 249 244 242 251 262 263 261 257 252 251 255 255 253 256 276 300 322 339 349
151 149 159 167 185 189 203 236 267 275 274 269 264 262 261 259 257 253 248 239 238 240 243 257 261 262 259 250 247 245 245 247 252 260 275 296 316 330
162 160 165 189 217 245 263 267 267 265 265 267 268 266 263 257 250 248 246 250 246 248 248 249 259 260 271 256 247 247 247 249 255 259 268 280 292 302
189 220 239 257 280 290 290 289 289 287 282 276 274 272 270 265 259 255 249 242 243 247 252 253 254 253 250 259 259 249 250 255 259 263 267 274 281 286
275 271 270 277 288 294 295 295 290 290 291 289 285 282 276 270 262 255 249 247 244 242 242 251 256 257 258 262 263 257 258 261 261 265 272 272 276 282
278 278 280 283 284 283 282 282 285 287 288 286 284 281 279 276 271 265 258 253 250 246 245 248 254 258 260 262 266 266 266 263 266 268 270 272 278 274
289 287 288 290 292 294 295 293 291 289 287 287 286 285 284 281 278 274 270 267 265 258 251 252 256 260 264 266 268 269 269 268 268 271 273 274 274 276
298 301 302 299 297 294 292 290 289 287 285 284 283 282 282 281 278 275 273 271 270 272 269 263 264 265 266 267 268 270 274 276 278 277 275 275 274 274
308 306 303 302 300 298 294 291 289 286 285 286 286 285 284 283 281 278 276 275 274 273 274 273 270 270 269 269 270 275 276 276 277 279 278 277 275 274
315 308 304 302 301 300 298 295 294 291 290 290 289 289 287 285 284 283 283 281 280 280 278 278 277 274 273 274 279 278 278 279 279 275 275 276 279 277
303 300 298 297 300 304 304 303 301 300 299 297 295 295 294 292 290 289 286 285 285 284 282 280 281 282 281 281 280 274 275 277 278 280 279 278 277 274
304 307 307 309 312 313 314 314 314 315 313 309 306 302 300 300 298 298 296 293 291 289 289 288 288 284 285 282 276 280 283 281 279 277 277 277 276 276
317 323 325 327 329 330 331 331 330 328 326 323 320 316 312 308 308 306 303 302 300 298 296 298 296 292 289 287 288 290 289 286 281 279 278 273 269 268
336 337 339 337 334 335 336 338 338 337 334 331 329 327 324 322 319 315 312 310 309 308 308 307 304 300 296 295 296 296 294 293 291 284 277 276 278 277
Wind_Speed_850mb
43 46 58 45 27 19 14 14 9 11 17 19 16 12 14 15 15 10 8 4 7 7 3 1 3 7 6 4 9 17 23 28 28 32 36 40 43 43
50 44 50 44 34 28 18 24 20 16 11 16 16 17 21 17 14 12 7 5 7 9 5 2 7 9 8 4 8 14 19 23 24 29 32 37 40 42
38 37 38 29 38 29 24 22 20 20 15 19 21 23 20 19 18 13 10 11 8 7 10 9 15 13 9 3 3 9 17 17 21 24 29 34 36 40
37 38 35 38 34 33 30 20 20 20 20 19 20 23 22 24 19 21 17 14 12 13 13 12 14 15 12 7 2 9 10 15 17 22 25 29 35 37
34 35 33 32 26 37 27 21 17 17 16 17 18 23 25 26 26 27 22 19 16 16 11 13 11 16 16 9 4 8 9 12 15 18 22 27 29 32
27 27 22 26 25 26 28 20 16 13 13 13 14 15 24 25 29 29 24 21 20 19 17 15 13 13 14 12 11 11 10 10 12 15 19 22 25 29
25 28 26 24 22 20 19 18 16 13 12 14 16 16 19 27 28 27 26 24 24 26 23 21 19 16 17 18 16 15 12 11 12 11 13 17 21 23
15 22 23 21 18 16 13 15 17 16 15 15 15 16 16 18 24 25 31 33 32 30 30 29 25 23 22 19 18 16 14 14 13 11 12 14 16 19
20 18 19 14 14 13 12 11 12 12 12 15 19 21 20 21 25 30 37 36 36 29 24 30 30 27 27 22 18 17 16 15 12 10 10 11 14 16
19 17 13 10 9 8 8 9 10 11 14 19 20 22 24 26 30 29 27 35 37 38 33 32 29 31 28 26 22 19 18 15 12 9 9 10 12 15
22 21 19 16 15 13 10 10 11 14 16 19 22 24 26 28 30 32 36 42 45 44 40 35 33 31 31 29 29 27 22 20 16 14 13 13 13 15
15 12 10 9 9 9 13 16 18 21 23 24 26 26 30 32 31 33 37 44 47 39 40 42 36 33 20 28 35 36 32 27 23 20 19 19 18 17
4 4 6 8 11 14 18 20 20 23 25 27 28 28 30 32 35 39 39 44 47 47 33 27 36 35 36 31 20 27 31 32 33 32 29 27 27 25
8 10 11 13 15 18 20 20 23 26 27 29 31 31 32 33 34 37 40 45 48 51 51 49 48 41 39 41 42 37 36 35 36 35 37 36 36 35
13 14 15 17 20 22 22 23 26 27 28 29 30 32 34 35 38 40 42 45 49 54 56 58 59 54 54 55 56 54 47 45 44 44 44 46 49 43
17 20 22 25 27 29 29 29 29 30 32 33 34 35 35 36 37 40 43 47 53 55 57 60 60 64 67 68 66 70 68 64 60 54 53 56 58 60
20 22 23 23 24 26 27 28 29 31 32 35 35 36 37 38 39 42 44 47 52 55 54 56 61 65 70 74 78 76 75 75 72 72 69 70 70 70
19 21 24 25 26 27 27 29 30 32 34 36 38 40 41 41 42 44 47 50 53 54 56 55 57 64 70 74 75 76 74 73 73 70 70 68 68 69
18 21 24 27 30 32 32 33 32 33 36 37 39 40 42 44 45 46 48 51 55 56 57 59 61 63 69 79 78 74 75 71 70 72 71 73 71 66
27 29 29 29 29 30 30 32 34 35 37 40 42 43 44 46 46 46 48 51 54 55 57 56 59 62 68 72 72 75 73 68 65 69 69 67 66 66
24 22 22 23 24 25 27 29 32 34 36 37 38 39 41 45 48 49 51 53 54 54 59 57 55 59 61 65 74 76 67 65 65 70 74 77 80 81
14 15 17 19 21 23 25 27 28 30 31 33 34 34 35 37 41 43 44 48 50 54 58 57 53 57 62 67 74 74 70 65 63 65 67 66 68 53
8 10 13 15 17 19 21 23 26 27 30 31 33 34 34 35 36 38 42 44 46 49 52 55 52 53 58 60 67 71 69 66 64 66 71 66 68 71
Wind_Direction_850mb
202 208 207 214 211 214 209 219 235 221 235 238 226 254 220 231 246 248 245 354 310 296 263 212 195 186 128 95 42 31 31 33 26 26 23 20 16 18
203 200 211 209 210 214 225 241 242 239 241 217 228 230 216 221 230 240 246 296 293 280 277 217 186 162 169 131 43 29 32 29 25 26 21 21 18 20
188 193 196 216 211 213 230 230 230 250 244 245 231 221 219 227 226 216 231 237 260 268 265 233 190 180 192 169 37 24 26 21 24 21 18 20 17 21
195 204 207 210 214 220 228 227 247 265 250 236 239 227 219 222 215 218 218 228 245 246 235 229 193 194 206 219 344 4 353 13 14 19 17 16 17 18
173 183 194 193 215 212 205 228 249 231 236 248 254 232 230 220 220 221 225 237 250 256 231 236 236 210 216 231 265 294 329 348 5 11 13 15 15 17
189 187 181 187 193 208 215 233 228 243 241 237 237 259 236 228 229 232 237 248 259 262 256 260 253 232 229 241 248 274 296 321 342 360 5 7 10 13
189 198 198 181 185 185 207 218 242 214 220 232 246 257 239 236 235 243 248 249 252 256 262 260 255 242 232 237 248 261 273 294 309 334 349 358 3 8
173 175 172 178 189 192 195 201 207 211 227 226 240 256 253 259 239 247 248 247 246 255 259 257 256 248 245 245 248 255 266 276 293 313 333 343 352 358
152 155 170 185 187 194 190 193 221 239 248 240 246 251 247 253 251 247 245 248 249 251 269 262 258 258 254 250 254 252 256 263 276 296 320 336 346 353
136 149 146 173 176 199 221 231 240 261 271 270 266 256 254 251 250 255 249 249 244 242 251 262 263 261 257 252 251 255 255 253 256 276 300 322 339 349
151 149 159 167 185 189 203 236 267 275 274 269 264 262 261 259 257 253 248 239 238 240 243 257 261 262 259 250 247 245 245 247 252 260 275 296 316 330
162 160 165 189 217 245 263 267 267 265 265 267 268 266 263 257 250 248 246 250 246 248 248 249 259 260 271 256 247 247 247 249 255 259 268 280 292 302
189 220 239 257 280 290 290 289 289 287 282 276 274 272 270 265 259 255 249 242 243 247 252 253 254 253 250 259 259 249 250 255 259 263 267 274 281 286
275 271 270 277 288 294 295 295 290 290 291 289 285 282 276 270 262 255 249 247 244 242 242 251 256 257 258 262 263 257 258 261 261 265 272 272 276 282
278 278 280 283 284 283 282 282 285 287 288 286 284 281 279 276 271 265 258 253 250 246 245 248 254 258 260 262 266 266 266 263 266 268 270 272 278 274
289 287 288 290 292 294 295 293 291 289 287 287 286 285 284 281 278 274 270 267 265 258 251 252 256 260 264 266 268 269 269 268 268 271 273 274 274 276
298 301 302 299 297 294 292 290 289 287 285 284 283 282 282 281 278 275 273 271 270 272 269 263 264 265 266 267 268 270 274 276 278 277 275 275 274 274
308 306 303 302 300 298 294 291 289 286 285 286 286 285 284 283 281 278 276 275 274 273 274 273 270 270 269 269 270 275 276 276 277 279 278 277 275 274
315 308 304 302 301 300 298 295 294 291 290 290 289 289 287 285 284 283 283 281 280 280 278 278 277 274 273 274 279 278 278 279 279 275 275 276 279 277
303 300 298 297 300 304 304 303 301 300 299 297 295 295 294 292 290 289 286 285 285 284 282 280 281 282 281 281 280 274 275 277 278 280 279 278 277 274
304 307 307 309 312 313 314 314 314 315 313 309 306 302 300 300 298 298 296 293 291 289 289 288 288 284 285 282 276 280 283 281 279 277 277 277 276 276
317 323 325 327 329 330 331 331 330 328 326 323 320 316 312 308 308 306 303 302 300 298 296 298 296 292 289 287 288 290 289 286 281 279 278 273 269 268
336 337 339 337 334 335 336 338 338 337 334 331 329 327 324 322 319 315 312 310 309 308 308 307 304 300 296 295 296 296 294 293 291 284 277 276 278 277